Showing default

KINEIS-1B, 60079

Orbit data source: Space-Track

KINEIS-1B, 60079 is a French payload satellite in SSO that was launched on Thu, 20 Jun 2024 UTC via an ELECTRON launch vehicle from the Rocket Lab Launch Complex (RLLC). Payload-class satellites include a variety of spacecraft equipped with specific instruments for various scientific and technological missions. These include communications satellites like Starlink; space stations such as the ISS; scientific satellites like the Hubble; Earth observation satellites from companies like Planet Labs, Umbra, and HawkEye 360; GPS; miniature CubeSats for education and research; and military/defense satellites.

Loading next visibility...
Identifier
60079, 2024-114A
Orbit
SSO
Country
Flag of FRFR
Related business
Manufacturer
KINEIS
Mission
Operational Commercial Communications
Bus & Motor
CUBESAT 16U, Unknown motor
Mass
28 kg wet, 28 kg dry
Launch date (UTC)
2024-06-20 (1 year ago)
Launch vehicle
ELECTRON
Launch site
Rocket Lab Launch Complex (RLLC)
Object type
Payload
Rocket body
Debris
Shape & HBR
Box + 2 Pan + 1 Ant, 0.8 m
Radar Cross Section
0.229 m², Medium (>0.1 m² and < 1m²)

Expand to show TLE details & history
Last TLE update: 18 hours ago

TLE from 18 hours ago
0 KINEIS-1B
1 60079U 24114A   25260.23615310  .00000848  00000-0  11949-3 0  9997
2 60079  98.0076 280.5327 0001028 245.9367 114.1737 14.79836864 67023
Epoch: 2025-09-17T05:40Z
TLE epoch observation values (Epoch: 2025-09-17T05:40:03.627Z)
Latitude
-0.00005°
Longitude
-160.89741°
Altitude
633.152 km
Speed
7.542 km/s
True Right ascension
18h 42m 07s
True Declination
0° 00' 00"
Sunlit
Object was in daylight at epoch
Visualization orbit readout
Latitude
Unknown
Longitude
Unknown
Altitude
Unknown
Speed
Unknown
Apparent Right ascension
Unknown
Apparent Declination
Unknown
Sunlit
N/A
Visualization observer readout
Local Sidereal Time
16:08:13
Azimuth
Unknown
Elevation
Unknown
Doppler factor
Unknown
Orbital elements
Apogee altitude
627.605 km
Perigee altitude
626.165 km
Semi-major axis
7,005.022 km
Eccentricity
0.0001
Inclination
98.0076°
RAAN
280.5327°
Arg. of periapsis
245.9367°
True anomaly
114.18445°
Mean anomaly
114.1737°
Eccentric anomaly
114.17907°
Mean motion
3.70194 °/min
Orbital period
97.25 mins
BSTAR
0.00011949
Loading maneuver chart data...
Computing Atmospheric mass density...
Loading historical data...
Loading historical data...
Loading historical data...
Loading historical data...
Loading historical data...
Loading historical data...
Loading historical data...

Documentation

Showing up to 5 results
|